This demonstration page uses our WeatherBlox Daily Observations layout. Learn more.

38.88101, -77.10428

Hourly Observations for November 25, 2016

Temp ( °F °C ) Dew Point ( °F °C ) Humidity (%) Winds ( mph kmh ) Pressure ( in mb ) Visibility ( mi km ) Precip ( " mm )
12:52 am 00:52 Partly Cloudy 46 7.8 40 4.4 79 79 Calm 30.24 1024 10 16.09344 0 0
1:52 am 01:52 Mostly Cloudy 45 7.2 41 5 86 86 NNE 5 7 30.24 1024 8 12.874752 0 0
2:52 am 02:52 Cloudy 44 6.7 39 3.9 83 83 N 5 7 30.27 1025 9 14.484096 0 0
3:52 am 03:52 Mostly Cloudy 45 7.2 39 3.9 80 80 Calm 30.24 1024 10 16.09344 0 0
4:52 am 04:52 Cloudy 46 7.8 40 4.4 79 79 Calm 30.24 1024 10 16.09344 0 0
5:52 am 05:52 Cloudy 46 7.8 42 5.6 86 86 Calm 30.24 1024 10 16.09344 0 0
6:52 am 06:52 Cloudy 47 8.3 42 5.6 83 83 NE 6 9 30.27 1025 10 16.09344 0 0
7:52 am 07:52 Cloudy 47 8.3 41 5 80 80 ENE 3 6 30.27 1025 10 16.09344 0 0
8:52 am 08:52 Cloudy 48 8.9 42 5.6 80 80 ENE 5 7 30.27 1025 10 16.09344 0 0
9:52 am 09:52 Cloudy 50 10 42 5.6 74 74 Calm 30.27 1025 10 16.09344 0 0
10:52 am 10:52 Cloudy 52 11.1 43 6.1 72 72 S 6 9 30.24 1024 10 16.09344 0 0
11:52 am 11:52 Cloudy 55 13 45 7 67 67 SSW 5 7 30.21 1023 10 16.09344 0 0
12:52 pm 12:52 Cloudy 56 13.3 45 7.2 67 67 Calm 30.21 1023 10 16.09344 0 0
1:52 pm 13:52 Cloudy 56 13.3 45 7.2 67 67 Calm 30.18 1022 10 16.09344 0 0
2:52 pm 14:52 Cloudy 57 13.9 46 7.8 67 67 Calm 30.15 1021 10 16.09344 0 0
3:52 pm 15:52 Cloudy 57 13.9 46 7.8 67 67 N 6 9 30.15 1021 10 16.09344 0 0
4:52 pm 16:52 Cloudy 54 12.2 46 7.8 75 75 NE 8 13 30.15 1021 10 16.09344 0 0
5:52 pm 17:52 Cloudy 52 11.1 45 7.2 77 77 NE 7 11 30.18 1022 10 16.09344 0 0
6:52 pm 18:52 Cloudy 53 11.7 45 7.2 74 74 N 3 6 30.18 1022 10 16.09344 0 0
7:52 pm 19:52 Mostly Cloudy 51 10.6 44 6.7 77 77 N 5 7 30.18 1022 10 16.09344 0 0
8:52 pm 20:52 Mostly Cloudy 49 9.4 44 6.7 83 83 N 8 13 30.18 1022 9 14.484096 0 0
9:52 pm 21:52 Cloudy 49 9.4 44 6.7 83 83 N 6 9 30.18 1022 9 14.484096 0 0
10:52 pm 22:52 Cloudy 50 10 44 6.7 80 80 NE 3 6 30.18 1022 8 12.874752 0 0
11:52 pm 23:52 Cloudy 50 10 45 7 82 82 N 8 13 30.18 1022 9 14.484096 0 0

Powered by AerisWeather